Weather History for KCBK - March, 2014

Change the Weather History Date:

Sunday, March 16, 2014

  Actual Average (KGLD) Record (KGLD)
Temperature  
Mean Temperature 40 °F 41 °F  
Max Temperature 50 °F 55 °F 89 °F (2015)
Min Temperature 30 °F 27 °F 7 °F (1928)
Degree Days  
Heating Degree Days 25 24  
Month to date heating degree days 424  
Since 1 July heating degree days 4841  
Cooling Degree Days 0 0  
Month to date cooling degree days 0  
Year to date cooling degree days 0  
Moisture  
Dew Point 27 °F    
Average Humidity 69    
Maximum Humidity 93    
Minimum Humidity 37    
Precipitation  
Precipitation 0.00 in 0.04 in 0.58 in (1983)
Month to date precipitation 0.48  
Year to date precipitation 1.35  
Snow  
Snow 0.00 in 0.30 in - ()
Month to date snowfall 3.2  
Since 1 July snowfall 27.2  
Snow Depth -    
Sea Level Pressure  
Sea Level Pressure 30.20 in    
Wind  
Wind Speed 12 mph (NNW)    
Max Wind Speed 18 mph    
Max Gust Speed 24 mph    
Visibility 10 miles    
Events      
T = Trace of Precipitation, MM = Missing Value Source: NWS Daily Summary

Daily Weather History Graph

Daily Weather History Graph

Search for Another Location

Airport or City:

Trip Planner

Search our weather history database for the weather conditions in past years. The results will help you decide how hot, cold, wet, or windy it might be!

Date:

Astronomy

Mar. 16, 2014 Rise Set
Actual Time 7:53 AM CDT 7:52 PM CDT
Civil Twilight 7:27 AM CDT 8:19 PM CDT
Nautical Twilight 6:56 AM CDT 8:50 PM CDT
Astronomical Twilight 6:24 AM CDT 9:21 PM CDT
Moon 8:11 PM CDT (3/16) 7:38 AM CDT (3/16)
Length of Visible Light 12h 51m
Length of Day
11h 58m
Full, 100% of the Moon is Illuminated
Mar 16
Full
Mar 16
Full
Mar 23
Last Quarter
Mar 30
New
Apr 7
First Quarter

Hourly Weather History & Observations

Time (CDT) Temp. Windchill Dew Point Humidity Pressure Visibility Wind Dir Wind Speed Gust Speed Precip Events Conditions
12:10 AM 33.8 °F 23.2 °F 32.0 °F 93% 30.24 in 10.0 mi North 17.3 mph - N/A   Clear
12:30 AM 33.8 °F 23.5 °F 30.2 °F 87% 30.25 in 10.0 mi North 16.1 mph - N/A   Clear
12:50 AM 32.0 °F 21.2 °F 30.2 °F 93% 30.25 in 10.0 mi North 16.1 mph - N/A   Scattered Clouds
1:10 AM 32.0 °F 20.8 °F 30.2 °F 93% 30.25 in 10.0 mi North 17.3 mph 23.0 mph N/A   Mostly Cloudy
1:30 AM 33.8 °F 23.2 °F 28.4 °F 81% 30.26 in 10.0 mi North 17.3 mph 21.9 mph N/A   Overcast
1:50 AM 33.8 °F 23.2 °F 30.2 °F 87% 30.27 in 10.0 mi North 17.3 mph 23.0 mph N/A   Overcast
2:10 AM 33.8 °F 24.3 °F 28.4 °F 81% 30.27 in 10.0 mi North 13.8 mph - N/A   Overcast
2:30 AM 33.8 °F 24.3 °F 28.4 °F 81% 30.27 in 10.0 mi North 13.8 mph 23.0 mph N/A   Overcast
2:50 AM 32.0 °F 22.5 °F 28.4 °F 87% 30.28 in 10.0 mi North 12.7 mph - N/A   Mostly Cloudy
3:10 AM 30.2 °F 20.8 °F 28.4 °F 93% 30.28 in 10.0 mi North 11.5 mph - N/A   Scattered Clouds
3:30 AM 30.2 °F 21.3 °F 28.4 °F 93% 30.29 in 10.0 mi North 10.4 mph - N/A   Scattered Clouds
3:50 AM 30.2 °F 21.9 °F 28.4 °F 93% 30.29 in 10.0 mi NNW 9.2 mph - N/A   Mostly Cloudy
4:10 AM 30.2 °F 21.9 °F 28.4 °F 93% 30.28 in 10.0 mi NNW 9.2 mph - N/A   Overcast
4:30 AM 32.0 °F 23.6 °F 28.4 °F 87% 30.28 in 10.0 mi North 10.4 mph - N/A   Overcast
4:50 AM 32.0 °F 24.2 °F 28.4 °F 87% 30.27 in 10.0 mi North 9.2 mph - N/A   Overcast
5:10 AM 32.0 °F 24.2 °F 28.4 °F 87% 30.27 in 10.0 mi North 9.2 mph - N/A   Overcast
5:30 AM 32.0 °F 22.5 °F 28.4 °F 87% 30.27 in 10.0 mi North 12.7 mph - N/A   Overcast
5:50 AM 32.0 °F 20.5 °F 28.4 °F 87% 30.27 in 10.0 mi North 18.4 mph - N/A   Overcast
6:10 AM 32.0 °F 22.5 °F 28.4 °F 87% 30.28 in 10.0 mi North 12.7 mph 24.2 mph N/A   Overcast
6:30 AM 32.0 °F 23.0 °F 28.4 °F 87% 30.28 in 10.0 mi North 11.5 mph 18.4 mph N/A   Overcast
6:50 AM 32.0 °F 22.1 °F 28.4 °F 87% 30.29 in 10.0 mi North 13.8 mph 18.4 mph N/A   Overcast
7:10 AM 32.0 °F 22.1 °F 28.4 °F 87% 30.28 in 10.0 mi North 13.8 mph - N/A   Overcast
7:30 AM 32.0 °F 22.1 °F 28.4 °F 87% 30.29 in 10.0 mi North 13.8 mph 20.7 mph N/A   Overcast
7:50 AM 32.0 °F 20.5 °F 26.6 °F 80% 30.29 in 10.0 mi North 18.4 mph 21.9 mph N/A   Overcast
8:10 AM 32.0 °F 22.1 °F 26.6 °F 80% 30.30 in 10.0 mi North 13.8 mph 21.9 mph N/A   Overcast
8:30 AM 32.0 °F 20.5 °F 26.6 °F 80% 30.31 in 10.0 mi North 18.4 mph 21.9 mph N/A   Overcast
8:50 AM 32.0 °F 21.6 °F 26.6 °F 80% 30.32 in 10.0 mi North 15.0 mph 23.0 mph N/A   Overcast
9:10 AM 32.0 °F 21.2 °F 26.6 °F 80% 30.33 in 10.0 mi North 16.1 mph 21.9 mph N/A   Overcast
9:30 AM 30.2 °F 18.9 °F 26.6 °F 86% 30.34 in 10.0 mi North 16.1 mph 21.9 mph N/A   Overcast
9:50 AM 30.2 °F 19.8 °F 26.6 °F 86% 30.34 in 10.0 mi North 13.8 mph - N/A   Overcast
10:10 AM 32.0 °F 23.0 °F 26.6 °F 80% 30.34 in 10.0 mi North 11.5 mph - N/A   Overcast
10:30 AM 32.0 °F 23.0 °F 28.4 °F 87% 30.32 in 10.0 mi North 11.5 mph 17.3 mph N/A   Overcast
10:50 AM 32.0 °F 23.6 °F 26.6 °F 80% 30.32 in 10.0 mi North 10.4 mph - N/A   Overcast
11:10 AM 32.0 °F 24.2 °F 28.4 °F 87% 30.32 in 10.0 mi North 9.2 mph - N/A   Overcast
11:30 AM 32.0 °F 25.6 °F 28.4 °F 87% 30.32 in 10.0 mi NNW 6.9 mph - N/A   Overcast
11:50 AM 32.0 °F 25.6 °F 28.4 °F 87% 30.31 in 10.0 mi North 6.9 mph - N/A   Overcast
12:10 PM 33.8 °F 29.6 °F 28.4 °F 81% 30.31 in 10.0 mi North 4.6 mph - N/A   Overcast
12:30 PM 35.6 °F 30.7 °F 28.4 °F 75% 30.30 in 10.0 mi NW 5.8 mph - N/A   Mostly Cloudy
12:50 PM 37.4 °F 29.8 °F 28.4 °F 70% 30.29 in 10.0 mi North 11.5 mph - N/A   Scattered Clouds
1:10 PM 37.4 °F 34.9 °F 28.4 °F 70% 30.27 in 10.0 mi NNW 3.5 mph - N/A   Clear
1:30 PM 37.4 °F 33.8 °F 28.4 °F 70% 30.26 in 10.0 mi WNW 4.6 mph - N/A   Clear
1:50 PM 39.2 °F - 28.4 °F 65% 30.25 in 10.0 mi Calm Calm - N/A   Clear
2:10 PM 41.0 °F 39.0 °F 28.4 °F 61% 30.23 in 10.0 mi SSW 3.5 mph - N/A   Clear
2:30 PM 42.8 °F - 28.4 °F 57% 30.21 in 10.0 mi Calm Calm - N/A   Clear
2:50 PM 42.8 °F 40.1 °F 28.4 °F 57% 30.20 in 10.0 mi South 4.6 mph - N/A   Clear
3:10 PM 44.6 °F 42.2 °F 28.4 °F 53% 30.18 in 10.0 mi SE 4.6 mph - N/A   Clear
3:30 PM 44.6 °F 41.4 °F 26.6 °F 49% 30.16 in 10.0 mi NNW 5.8 mph - N/A   Clear
3:50 PM 46.4 °F 44.3 °F 26.6 °F 46% 30.15 in 10.0 mi South 4.6 mph - N/A   Clear
4:10 PM 46.4 °F 45.2 °F 24.8 °F 43% 30.15 in 10.0 mi West 3.5 mph - N/A   Clear
4:30 PM 46.4 °F 45.2 °F 24.8 °F 43% 30.14 in 10.0 mi NW 3.5 mph - N/A   Clear
4:50 PM 48.2 °F - 24.8 °F 40% 30.14 in 10.0 mi West 4.6 mph - N/A   Clear
5:10 PM 50.0 °F - 24.8 °F 37% 30.12 in 10.0 mi WNW 4.6 mph - N/A   Clear
5:30 PM 50.0 °F - 26.6 °F 40% 30.12 in 10.0 mi Calm Calm - N/A   Clear
5:50 PM 48.2 °F - 26.6 °F 43% 30.09 in 10.0 mi South 6.9 mph - N/A   Clear
6:10 PM 48.2 °F - 26.6 °F 43% 30.09 in 10.0 mi Calm Calm - N/A   Clear
6:30 PM 50.0 °F - 26.6 °F 40% 30.09 in 10.0 mi South 4.6 mph - N/A   Clear
6:50 PM 48.2 °F - 24.8 °F 40% 30.08 in 10.0 mi South 4.6 mph - N/A   Clear
7:10 PM 48.2 °F - 24.8 °F 40% 30.07 in 10.0 mi South 6.9 mph - N/A   Clear
7:30 PM 46.4 °F 42.9 °F 24.8 °F 43% 30.07 in 10.0 mi South 6.9 mph - N/A   Clear
7:50 PM 42.8 °F 38.6 °F 24.8 °F 49% 30.05 in 10.0 mi SSE 6.9 mph - N/A   Clear
8:10 PM 41.0 °F 37.1 °F 23.0 °F 49% 30.05 in 10.0 mi SSE 5.8 mph - N/A   Clear
8:30 PM 41.0 °F 35.8 °F 24.8 °F 53% 30.04 in 10.0 mi SSE 8.1 mph - N/A   Clear
8:50 PM 41.0 °F 36.4 °F 23.0 °F 49% 30.04 in 10.0 mi South 6.9 mph - N/A   Clear
9:10 PM 41.0 °F 35.8 °F 23.0 °F 49% 30.03 in 10.0 mi South 8.1 mph - N/A   Clear
9:30 PM 41.0 °F 35.8 °F 24.8 °F 53% 30.02 in 10.0 mi SSE 8.1 mph - N/A   Clear
9:50 PM 41.0 °F 35.2 °F 24.8 °F 53% 30.02 in 10.0 mi South 9.2 mph - N/A   Clear
10:10 PM 41.0 °F 35.2 °F 23.0 °F 49% 30.03 in 10.0 mi South 9.2 mph - N/A   Clear
10:30 PM 39.2 °F 30.8 °F 23.0 °F 52% 30.03 in 10.0 mi South 15.0 mph - N/A   Clear
10:50 PM 39.2 °F 32.0 °F 23.0 °F 52% 30.02 in 10.0 mi South 11.5 mph - N/A   Clear
11:10 PM 37.4 °F 30.3 °F 23.0 °F 56% 30.02 in 10.0 mi SSW 10.4 mph - N/A   Clear
11:30 PM 37.4 °F 30.8 °F 23.0 °F 56% 30.01 in 10.0 mi SSW 9.2 mph - N/A   Clear
11:50 PM 37.4 °F 30.8 °F 23.0 °F 56% 30.00 in 10.0 mi SSW 9.2 mph - N/A   Clear